Location: Seattle
(47.6064°N, 122.3308°W)
Time: 00:03:59
(UTC-08:00)

Tiros 1 - Pass Details

Date: 28 November 2020
Orbit: 630 x 663 km, 48.4° (Epoch: 28 January)

Event Time Altitude Azimuth Distance (km) Brightness Sun altitude
Rises 14:51:45 0° 208° (SSW) 2,982 12.4 10.6°
Reaches altitude 10° 14:54:26 10° 195° (SSW) 2,073 11.1 10.3°
Maximum altitude 14:58:16 24° 142° (SE) 1,363 9.0 9.9°
Drops below altitude 10° 15:02:05 10° 89° (E) 2,076 9.4 9.4°
Sets 15:04:47 0° 75° (ENE) 2,987 10.0 9.1°
